PAKSAT-1R

Last updated on Nov. 18, 2019, 4:21 a.m. UTC

1 37779U 11042A   19321.31299289  .00000161  00000-0  00000+0 0  9997
2 37779   0.0142 255.8021 0003322 346.1015 324.8985  1.00273626 30172
UTC
Height (km)
Latitude
Longitude
Inclination
Orbital Period
UTC large
Height (km)
Speed (km/s)
/
Latitude / Longitude
Inclination (degrees)
Orbital Period (minutes)
Azimuth
Elevation
Range (km)
Doppler Factor
iOS Compass Heading
iOS Angle

Next 30 passes for location: Hong Kong

Rise time Rise Azimuth (degrees) Set time Set Azimuth (degrees) Duration Max altitude (degrees)

No matching passes for this satellites